Time,TemperatureF,DewpointF,PressureIn,WindDirection,WindDirectionDegrees,WindSpeedMPH,WindSpeedGustMPH,Humidity,HourlyPrecipIn,Conditions,Clouds,dailyrainin,SolarRadiationWatts/m^2,SoftwareType,DateUTC
2013-07-19 00:02:00,71.0,68.0,-100.00,WSW,253,0.0,5.0,90,0.00,,,0.14,0.000000,,2013-07-19 05:02:00,
2013-07-19 00:11:00,71.0,68.0,-100.00,WSW,253,0.0,5.0,90,0.00,,,0.14,0.000000,,2013-07-19 05:11:00,
2013-07-19 00:22:00,71.0,68.0,-100.00,WSW,253,0.0,5.0,90,0.00,,,0.14,0.000000,,2013-07-19 05:22:00,
2013-07-19 00:32:00,71.0,68.0,-100.00,SE,137,0.0,0.0,91,0.00,,,0.14,0.000000,,2013-07-19 05:32:00,
2013-07-19 00:53:00,71.0,68.0,-100.00,SE,137,0.0,0.0,91,0.00,,,0.14,0.000000,,2013-07-19 05:53:00,
2013-07-19 01:01:00,71.0,68.0,-100.00,SE,137,0.0,0.0,91,0.00,,,0.14,0.000000,,2013-07-19 06:01:00,
2013-07-19 01:11:00,71.0,68.0,-100.00,SE,137,0.0,0.0,91,0.00,,,0.14,0.000000,,2013-07-19 06:11:00,
2013-07-19 01:22:00,71.0,68.0,-100.00,SE,137,0.0,0.0,91,0.00,,,0.14,0.000000,,2013-07-19 06:22:00,
2013-07-19 01:32:00,71.0,68.0,-100.00,SW,219,0.0,5.0,91,0.00,,,0.14,0.000000,,2013-07-19 06:32:00,
2013-07-19 02:01:00,71.0,68.0,-100.00,SW,219,0.0,5.0,91,0.00,,,0.14,0.000000,,2013-07-19 07:01:00,
2013-07-19 02:12:00,71.0,68.0,-100.00,SW,219,0.0,5.0,91,0.00,,,0.14,0.000000,,2013-07-19 07:12:00,
2013-07-19 02:22:00,71.0,68.0,-100.00,SW,219,0.0,5.0,91,0.00,,,0.14,0.000000,,2013-07-19 07:22:00,
2013-07-19 02:32:00,70.0,67.0,-100.00,NNW,329,0.0,0.0,91,0.00,,,-99.99,0.000000,,2013-07-19 07:32:00,
2013-07-19 02:53:00,70.0,67.0,-100.00,NNW,329,0.0,0.0,91,0.00,,,-99.99,0.000000,,2013-07-19 07:53:00,
2013-07-19 03:01:00,70.0,67.0,-100.00,NNW,329,0.0,0.0,91,0.00,,,-99.99,0.000000,,2013-07-19 08:01:00,
2013-07-19 03:11:00,70.0,67.0,-100.00,NNW,329,0.0,0.0,91,0.00,,,-99.99,0.000000,,2013-07-19 08:11:00,
2013-07-19 03:22:00,70.0,67.0,-100.00,NNW,329,0.0,0.0,91,0.00,,,-99.99,0.000000,,2013-07-19 08:22:00,
2013-07-19 03:32:00,69.0,67.0,-100.00,NE,43,0.0,0.0,92,0.00,,,-99.99,0.000000,,2013-07-19 08:32:00,
2013-07-19 03:52:00,69.0,67.0,-100.00,NE,43,0.0,0.0,92,0.00,,,-99.99,0.000000,,2013-07-19 08:52:00,
2013-07-19 04:02:00,69.0,67.0,-100.00,NE,43,0.0,0.0,92,0.00,,,-99.99,0.000000,,2013-07-19 09:02:00,
2013-07-19 04:11:00,69.0,67.0,-100.00,NE,43,0.0,0.0,92,0.00,,,-99.99,0.000000,,2013-07-19 09:11:00,
2013-07-19 04:22:00,69.0,67.0,-100.00,NE,43,0.0,0.0,92,0.00,,,-99.99,0.000000,,2013-07-19 09:22:00,
2013-07-19 04:32:00,69.0,67.0,-100.00,NW,320,0.0,3.0,92,0.00,,,0.14,0.000000,,2013-07-19 09:32:00,
2013-07-19 04:52:00,69.0,67.0,-100.00,NW,320,0.0,3.0,92,0.00,,,0.14,0.000000,,2013-07-19 09:52:00,
2013-07-19 05:01:00,69.0,67.0,-100.00,NW,320,0.0,3.0,92,0.00,,,0.14,0.000000,,2013-07-19 10:01:00,
2013-07-19 05:11:00,69.0,67.0,-100.00,NW,320,0.0,3.0,92,0.00,,,0.14,0.000000,,2013-07-19 10:11:00,
2013-07-19 05:22:00,69.0,67.0,-100.00,NW,320,0.0,3.0,92,0.00,,,0.14,0.000000,,2013-07-19 10:22:00,
2013-07-19 05:32:00,68.0,66.0,-100.00,NNW,343,0.0,1.0,92,0.00,,,0.14,0.000000,,2013-07-19 10:32:00,
2013-07-19 05:52:00,68.0,66.0,-100.00,NNW,343,0.0,1.0,92,0.00,,,0.14,0.000000,,2013-07-19 10:52:00,
2013-07-19 06:02:00,68.0,66.0,-100.00,NNW,343,0.0,1.0,92,0.00,,,0.14,0.000000,,2013-07-19 11:02:00,
2013-07-19 06:12:00,68.0,66.0,-100.00,NNW,343,0.0,1.0,92,0.00,,,0.14,0.000000,,2013-07-19 11:12:00,
2013-07-19 06:22:00,68.0,66.0,-100.00,NNW,343,0.0,1.0,92,0.00,,,0.14,0.000000,,2013-07-19 11:22:00,
2013-07-19 06:32:00,68.0,66.0,-100.00,NE,40,0.0,3.0,92,0.00,,,-99.99,1.000000,,2013-07-19 11:32:00,
2013-07-19 06:52:00,68.0,66.0,-100.00,NE,40,0.0,3.0,92,0.00,,,-99.99,1.000000,,2013-07-19 11:52:00,
2013-07-19 07:01:00,68.0,66.0,-100.00,NE,40,0.0,3.0,92,0.00,,,-99.99,1.000000,,2013-07-19 12:01:00,
2013-07-19 07:12:00,68.0,66.0,-100.00,NE,40,0.0,3.0,92,0.00,,,-99.99,1.000000,,2013-07-19 12:12:00,
2013-07-19 07:22:00,68.0,66.0,-100.00,NE,40,0.0,3.0,92,0.00,,,-99.99,1.000000,,2013-07-19 12:22:00,
2013-07-19 07:32:00,70.0,68.0,-100.00,ENE,59,1.0,3.0,92,0.00,,,0.14,82.000000,,2013-07-19 12:32:00,
2013-07-19 07:52:00,70.0,68.0,-100.00,ENE,59,1.0,3.0,92,0.00,,,0.14,82.000000,,2013-07-19 12:52:00,
2013-07-19 08:02:00,70.0,68.0,-100.00,ENE,59,1.0,3.0,92,0.00,,,0.14,82.000000,,2013-07-19 13:02:00,
2013-07-19 08:12:00,70.0,68.0,-100.00,ENE,59,1.0,3.0,92,0.00,,,0.14,82.000000,,2013-07-19 13:12:00,
2013-07-19 08:22:00,70.0,68.0,-100.00,ENE,59,1.0,3.0,92,0.00,,,0.14,82.000000,,2013-07-19 13:22:00,
2013-07-19 08:32:00,76.0,69.0,-100.00,ENE,66,3.0,5.0,80,0.00,,,0.14,336.000000,,2013-07-19 13:32:00,
2013-07-19 08:53:00,76.0,69.0,-100.00,ENE,66,3.0,5.0,80,0.00,,,0.14,336.000000,,2013-07-19 13:53:00,
2013-07-19 09:02:00,76.0,69.0,-100.00,ENE,66,3.0,5.0,80,0.00,,,0.14,336.000000,,2013-07-19 14:02:00,
2013-07-19 09:12:00,76.0,69.0,-100.00,ENE,66,3.0,5.0,80,0.00,,,0.14,336.000000,,2013-07-19 14:12:00,
2013-07-19 09:22:00,76.0,69.0,-100.00,ENE,66,3.0,5.0,80,0.00,,,0.14,336.000000,,2013-07-19 14:22:00,
2013-07-19 09:32:00,78.0,69.0,-100.00,ENE,59,3.0,4.0,75,0.00,,,0.14,354.000000,,2013-07-19 14:32:00,
2013-07-19 09:53:00,78.0,69.0,-100.00,ENE,59,3.0,4.0,75,0.00,,,0.14,354.000000,,2013-07-19 14:53:00,
2013-07-19 10:02:00,78.0,69.0,-100.00,ENE,59,3.0,4.0,75,0.00,,,0.14,354.000000,,2013-07-19 15:02:00,
2013-07-19 10:11:00,78.0,69.0,-100.00,ENE,59,3.0,4.0,75,0.00,,,0.14,354.000000,,2013-07-19 15:11:00,
2013-07-19 10:23:00,78.0,69.0,-100.00,ENE,59,3.0,4.0,75,0.00,,,0.14,354.000000,,2013-07-19 15:23:00,
2013-07-19 10:32:00,84.0,68.0,-100.00,NE,51,3.0,6.0,58,0.00,,,0.14,762.000000,,2013-07-19 15:32:00,
2013-07-19 10:52:00,84.0,68.0,-100.00,NE,51,3.0,6.0,58,0.00,,,0.14,762.000000,,2013-07-19 15:52:00,
2013-07-19 11:01:00,84.0,68.0,-100.00,NE,51,3.0,6.0,58,0.00,,,0.14,762.000000,,2013-07-19 16:01:00,
2013-07-19 11:11:00,84.0,68.0,-100.00,NE,51,3.0,6.0,58,0.00,,,0.14,762.000000,,2013-07-19 16:11:00,
2013-07-19 11:22:00,84.0,68.0,-100.00,NE,51,3.0,6.0,58,0.00,,,0.14,762.000000,,2013-07-19 16:22:00,
2013-07-19 11:32:00,87.0,66.0,-100.00,East,88,4.0,7.0,50,0.00,,,0.14,922.000000,,2013-07-19 16:32:00,
2013-07-19 11:53:00,87.0,66.0,-100.00,East,88,4.0,7.0,50,0.00,,,0.14,922.000000,,2013-07-19 16:53:00,
2013-07-19 12:02:00,87.0,66.0,-100.00,East,88,4.0,7.0,50,0.00,,,0.14,922.000000,,2013-07-19 17:02:00,
2013-07-19 12:12:00,87.0,66.0,-100.00,East,88,4.0,7.0,50,0.00,,,0.14,922.000000,,2013-07-19 17:12:00,
2013-07-19 12:22:00,87.0,66.0,-100.00,East,88,4.0,7.0,50,0.00,,,0.14,922.000000,,2013-07-19 17:22:00,
2013-07-19 12:32:00,89.0,66.0,-100.00,East,81,4.0,7.0,47,0.00,,,0.14,794.000000,,2013-07-19 17:32:00,
2013-07-19 12:52:00,89.0,66.0,-100.00,East,81,4.0,7.0,47,0.00,,,0.14,794.000000,,2013-07-19 17:52:00,
2013-07-19 13:01:00,89.0,66.0,-100.00,East,81,4.0,7.0,47,0.00,,,0.14,794.000000,,2013-07-19 18:01:00,
2013-07-19 13:11:00,89.0,66.0,-100.00,East,81,4.0,7.0,47,0.00,,,0.14,794.000000,,2013-07-19 18:11:00,
2013-07-19 13:22:00,89.0,66.0,-100.00,East,81,4.0,7.0,47,0.00,,,0.14,794.000000,,2013-07-19 18:22:00,
2013-07-19 13:32:00,87.0,66.0,-100.00,ENE,66,5.0,9.0,50,0.00,,,0.14,585.000000,,2013-07-19 18:32:00,
2013-07-19 13:52:00,87.0,66.0,-100.00,ENE,66,5.0,9.0,50,0.00,,,0.14,585.000000,,2013-07-19 18:52:00,
2013-07-19 14:01:00,87.0,66.0,-100.00,ENE,66,5.0,9.0,50,0.00,,,0.14,585.000000,,2013-07-19 19:01:00,
2013-07-19 14:11:00,87.0,66.0,-100.00,ENE,66,5.0,9.0,50,0.00,,,0.14,585.000000,,2013-07-19 19:11:00,
2013-07-19 14:21:00,87.0,66.0,-100.00,ENE,66,5.0,9.0,50,0.00,,,0.14,585.000000,,2013-07-19 19:21:00,
2013-07-19 14:32:00,91.0,65.0,-100.00,NE,56,6.0,11.0,42,0.00,,,0.12,953.000000,,2013-07-19 19:32:00,
2013-07-19 14:52:00,91.0,65.0,-100.00,NE,56,6.0,11.0,42,0.00,,,0.12,953.000000,,2013-07-19 19:52:00,
2013-07-19 15:01:00,91.0,65.0,-100.00,NE,56,6.0,11.0,42,0.00,,,0.12,953.000000,,2013-07-19 20:01:00,
2013-07-19 15:11:00,91.0,65.0,-100.00,NE,56,6.0,11.0,42,0.00,,,0.12,953.000000,,2013-07-19 20:11:00,
2013-07-19 15:22:00,91.0,65.0,-100.00,NE,56,6.0,11.0,42,0.00,,,0.12,953.000000,,2013-07-19 20:22:00,
2013-07-19 15:32:00,90.0,66.0,-100.00,NE,52,2.0,5.0,46,0.00,,,0.11,419.000000,,2013-07-19 20:32:00,
2013-07-19 15:52:00,90.0,66.0,-100.00,NE,52,2.0,5.0,46,0.00,,,0.11,419.000000,,2013-07-19 20:52:00,
2013-07-19 16:01:00,90.0,66.0,-100.00,NE,52,2.0,5.0,46,0.00,,,0.11,419.000000,,2013-07-19 21:01:00,
2013-07-19 16:11:00,90.0,66.0,-100.00,NE,52,2.0,5.0,46,0.00,,,0.11,419.000000,,2013-07-19 21:11:00,
2013-07-19 16:22:00,90.0,66.0,-100.00,NE,52,2.0,5.0,46,0.00,,,0.11,419.000000,,2013-07-19 21:22:00,
2013-07-19 16:32:00,93.0,65.0,-100.00,WNW,296,4.0,9.0,40,0.00,,,0.02,823.000000,,2013-07-19 21:32:00,
2013-07-19 16:52:00,93.0,65.0,-100.00,WNW,296,4.0,9.0,40,0.00,,,0.02,823.000000,,2013-07-19 21:52:00,
2013-07-19 17:01:00,93.0,65.0,-100.00,WNW,296,4.0,9.0,40,0.00,,,0.02,823.000000,,2013-07-19 22:01:00,
2013-07-19 17:11:00,93.0,65.0,-100.00,WNW,296,4.0,9.0,40,0.00,,,0.02,823.000000,,2013-07-19 22:11:00,
2013-07-19 17:21:00,93.0,65.0,-100.00,WNW,296,4.0,9.0,40,0.00,,,0.02,823.000000,,2013-07-19 22:21:00,
2013-07-19 17:32:00,92.0,63.0,-100.00,ESE,113,3.0,7.0,38,0.00,,,0.02,489.000000,,2013-07-19 22:32:00,
2013-07-19 18:01:00,92.0,63.0,-100.00,ESE,113,3.0,7.0,38,0.00,,,0.02,489.000000,,2013-07-19 23:01:00,
2013-07-19 18:11:00,92.0,63.0,-100.00,ESE,113,3.0,7.0,38,0.00,,,0.02,489.000000,,2013-07-19 23:11:00,
2013-07-19 18:21:00,92.0,63.0,-100.00,ESE,113,3.0,7.0,38,0.00,,,0.02,489.000000,,2013-07-19 23:21:00,
2013-07-19 18:32:00,78.0,67.0,-100.00,West,278,6.0,13.0,70,0.00,,,0.02,94.000000,,2013-07-19 23:32:00,
2013-07-19 19:11:00,78.0,67.0,-100.00,West,278,6.0,13.0,70,0.00,,,0.02,94.000000,,2013-07-20 00:11:00,
2013-07-19 19:32:00,72.0,67.0,-100.00,WNW,282,5.0,17.0,84,0.14,,,0.16,14.000000,,2013-07-20 00:32:00,
2013-07-19 20:11:00,72.0,67.0,-100.00,WNW,282,5.0,17.0,84,0.14,,,0.16,14.000000,,2013-07-20 01:11:00,
2013-07-19 20:22:00,72.0,67.0,-100.00,WNW,282,5.0,17.0,84,0.14,,,0.16,14.000000,,2013-07-20 01:22:00,
2013-07-19 20:32:00,73.0,70.0,-100.00,ENE,58,5.0,8.0,89,0.00,,,0.16,2.000000,,2013-07-20 01:32:00,
2013-07-19 20:52:00,73.0,70.0,-100.00,ENE,58,5.0,8.0,89,0.00,,,0.16,2.000000,,2013-07-20 01:52:00,
2013-07-19 21:02:00,73.0,70.0,-100.00,ENE,58,5.0,8.0,89,0.00,,,0.16,2.000000,,2013-07-20 02:02:00,
2013-07-19 21:11:00,73.0,70.0,-100.00,ENE,58,5.0,8.0,89,0.00,,,0.16,2.000000,,2013-07-20 02:11:00,
2013-07-19 21:22:00,73.0,70.0,-100.00,ENE,58,5.0,8.0,89,0.00,,,0.16,2.000000,,2013-07-20 02:22:00,
2013-07-19 21:32:00,73.0,70.0,-100.00,ESE,104,1.0,6.0,89,0.00,,,0.15,0.000000,,2013-07-20 02:32:00,
2013-07-19 21:52:00,73.0,70.0,-100.00,ESE,104,1.0,6.0,89,0.00,,,0.15,0.000000,,2013-07-20 02:52:00,
2013-07-19 22:02:00,73.0,70.0,-100.00,ESE,104,1.0,6.0,89,0.00,,,0.15,0.000000,,2013-07-20 03:02:00,
2013-07-19 22:12:00,73.0,70.0,-100.00,ESE,104,1.0,6.0,89,0.00,,,0.15,0.000000,,2013-07-20 03:12:00,
2013-07-19 22:22:00,73.0,70.0,-100.00,ESE,104,1.0,6.0,89,0.00,,,0.15,0.000000,,2013-07-20 03:22:00,
2013-07-19 22:32:00,72.0,69.0,-100.00,NNW,348,0.0,3.0,90,0.00,,,0.14,0.000000,,2013-07-20 03:32:00,
2013-07-19 22:53:00,72.0,69.0,-100.00,NNW,348,0.0,3.0,90,0.00,,,0.14,0.000000,,2013-07-20 03:53:00,
2013-07-19 23:02:00,72.0,69.0,-100.00,NNW,348,0.0,3.0,90,0.00,,,0.14,0.000000,,2013-07-20 04:02:00,
2013-07-19 23:12:00,72.0,69.0,-100.00,NNW,348,0.0,3.0,90,0.00,,,0.14,0.000000,,2013-07-20 04:12:00,
2013-07-19 23:22:00,72.0,69.0,-100.00,NNW,348,0.0,3.0,90,0.00,,,0.14,0.000000,,2013-07-20 04:22:00,
2013-07-19 23:32:00,71.0,68.0,-100.00,SE,146,2.0,4.0,91,0.00,,,0.14,0.000000,,2013-07-20 04:32:00,
2013-07-19 23:52:00,71.0,68.0,-100.00,SE,146,2.0,4.0,91,0.00,,,0.14,0.000000,,2013-07-20 04:52:00,